Regional Weather Roundup
Issued by NWS Grand Forks, ND

Home | Current Version | Previous Version | Text Only | Print | Product List | Glossary On
Versions: 1 2 3 4 5 6 7 8 9 10 11 12 13 14 15 16 17 18 19 20 21 22 23 24 25 26 27 28 29 30 31 32 33 34 35 36 37 38 39 40 41 42 43 44 45 46 47 48 49 50
000
ASUS43 KFGF 282231
RWRFGF
PRAIRIE TO PINES  WEATHER ROUNDUP
NATIONAL WEATHER SERVICE EASTERN NORTH DAKOTA/GRAND FORKS ND
500 PM CDT SUN MAY 28 2017

 **SATELLITE DATA USED TO AUGMENT SKY COVER AT AUTOMATED STATIONS**
 *****  WEATHER ACROSS EASTERN NORTH DAKOTA  *****

CITY           SKY/WX    TMP DP  RH WIND       PRES   REMARKS
GRAND FORKS    PTSUNNY   62  50  64 N12       29.71F
GRAND FRKS AFB PTSUNNY   59  46  63 N15       29.74R
DEVILS LAKE    CLOUDY    58  44  60 NW25G37   29.80R
FARGO          PTSUNNY   65  43  44 W21       29.74F
WAHPETON ARPT  FAIR      61  37  41 W18G28    29.79R
$$

 ***** WEATHER ACROSS CENTRAL AND WESTERN NORTH DAKOTA  *****

CITY           SKY/WX    TMP DP  RH WIND       PRES   REMARKS
BISMARCK       FAIR      73  34  23 NW23G45   29.86R
MINOT          CLOUDY    66  39  37 NW28      29.88S
JAMESTOWN      LGT RAIN  56  46  69 NW28G40   29.81R
MINOT AFB      FAIR      65  40  40 N30G41    29.87S
GARRISON         N/A     66  36  32 N38G46    29.89R
WILLISTON      PTSUNNY   70  33  25 NW25G33   29.99S
DICKINSON      FAIR      70  28  21 NW25G40   29.94R
HETTINGER      FAIR      73  33  23 NW33G40   29.96R
$$

 *****  OTHER AIRPORT OBSERVATIONS IN OUR AREA  *****

CITY           SKY/WX    TMP DP  RH WIND       PRES   REMARKS
WALHALLA       NOT AVBL
GRAFTON AIRPOR MOCLDY    57  46  67 NW24G32   29.76R
VALLEY CITY AR FAIR      63  48  59 NW16G25   29.80R
CANDO          NOT AVBL
CAVALIER APRT  CLOUDY    55  46  71 NW20G30   29.75R
GWINNER        MOCLDY    55  48  76 MISG      29.80F HAZE
SHEYENNE NWR     N/A     61  44  53 NW10      29.95S
ROLLA          CLOUDY    52  48  87 NW20      29.84R
 ***** THE ABOVE OBSERVATIONS ARE NON NWS ARE NOT QUALITY
       CONTROLLED AND MAY MIS-REPORT RAIN FOR SNOW...
$$

  *****  WEATHER ACROSS NORTHERN MINNESOTA  *****

CITY           SKY/WX    TMP DP  RH WIND       PRES   REMARKS
FLAG ISLAND    FAIR      55  48  76 NW14      29.65R
WARROAD        FAIR      59  48  67 W10       29.66S
ROSEAU         LGT RAIN  54  48  82 W6        29.68R
HALLOCK        CLOUDY    57  46  67 NW23G30   29.72R
THF RVR FALLS  CLOUDY    59  49  69 W14       29.70S
BAUDETTE       CLOUDY    59  54  83 N8        29.64S
WASKISH        CLOUDY    61  48  63 W12       29.66S
CROOKSTON      CLOUDY    57  48  72 NW10      29.72S
STEPHEN NDAWN    N/A     57  48  72 NW20        N/A
GREENBUSH NDAW   N/A     61  46  59 NW18        N/A
$$
  *****  WEATHER ACROSS CENTRAL AND WEST MINNESOTA  *****

CITY           SKY/WX    TMP DP  RH WIND       PRES   REMARKS
FOSSTON        PTSUNNY   59  48  67 NW14G20   29.72F
BEMIDJI        FAIR      58  46  63 W15       29.69F
PARK RAPIDS    LGT RAIN  52  44  74 N13       29.73R
ELBOW LAKE     RAIN      61  44  52 W31G51    29.77R
WADENA         FAIR      61  45  55 N16G28    29.73R
DETROIT LAKES  LGT RAIN  54  46  76 NW10G18   29.78R
MOORHEAD       FAIR      63  50  63 NW10      29.76S
FERGUS FALLS   RAIN      57  46  67 NW28G46   29.78R
MORRIS MN      FAIR      70  39  32 NW20G29   29.75S
STAPLES        FAIR      57  45  62 NW20G35   29.74R
$$
  *****  WEATHER ELSEWHERE ACROSS MINNESOTA  *****

CITY           SKY/WX    TMP DP  RH WIND       PRES   REMARKS
DULUTH         PTSUNNY   63  48  58 NW14G25   29.65R
INTRNTL FALLS  LGT RAIN  58  51  78 N10       29.62S
ELY            LGT RAIN  54  52  94 W7        29.63R
CLOQUET        FAIR      61  46  59 W18G25    29.67S
WHEATON        RAIN      55  46  71 NW23G39   29.87R
BRAINERD       CLOUDY    63  46  54 NW9       29.72S
HIBBING        LGT RAIN  53  52  96 W8        29.65S
ALEXANDRIA     FAIR      67  44  43 NW10G26   29.75F
SAINT CLOUD    FAIR      67  48  50 W20G28    29.73S
MINNEAPOLIS    PTSUNNY   68  45  43 NW24G43   29.73R
$$

  *****  WEATHER ACROSS SOUTH DAKOTA  *****

CITY           SKY/WX    TMP DP  RH WIND       PRES   REMARKS
SIOUX FALLS    FAIR      74  43  32 NW21G26   29.86F
BROOKINGS      FAIR      70  41  34 NW17G26   29.84S
WATERTOWN      FAIR      67  44  43 NW20      29.83S
HURON          PTSUNNY   73  37  27 NW24G32   29.83F
SISSETON         N/A     57  50  77 N26G43    29.83R
ABERDEEN       FAIR      64  47  53 N15       29.84R
MITCHELL       FAIR      79  36  21 NW22      29.87F
PIERRE         PTSUNNY   67  42  40 NW24G33   29.94R
MOBRIDGE       FAIR      74  37  26 NW21G28   29.82F
RAPID CITY     LGT RAIN  56  46  69 N33G43    30.05R
$$

  *****  SOME WEATHER IN NEARBY STATES *****

CITY           SKY/WX    TMP DP  RH WIND       PRES   REMARKS
GLASGOW MT     FAIR      74  27  17 NW23G37   30.08S
GREAT FALLS MT FAIR      73  42  32 NE17G23   30.22S
CHEYENNE WY    FAIR      65  34  31 N12       30.23F
SCOTTSBLUFF NE LGT RAIN  68  36  30 W20G41    30.13R
OMAHA NE       FAIR      80  39  23 NW24G32   29.88R
DES MOINES IA  FAIR      81  44  27 W21G29    29.81S
DAVENPORT IA   FAIR      76  45  33 W18G29    29.78S
CHICAGO IL     FAIR      76  51  41 W13G23    29.73R
EAU CLAIRE WI  CLOUDY    66  47  50 NW10      29.70R
LA CROSSE WI   PTSUNNY   75  47  36 NW16      29.72S
$$

  *****  SOME NATIONAL WEATHER *****

CITY           SKY/WX    TMP DP  RH WIND       PRES   REMARKS
LA GUARDIA NY  CLOUDY    67  48  50 SE10      29.95R
RALEIGH NC     PTSUNNY   84  68  58 VRB3      29.81F
ATLANTA GA     PTSUNNY   84  65  52 W10G20    29.92R
NEW ORLEANS LA FAIR      87  72  60 SE14      29.95S HX  93
OKLAHOMA CITY  FAIR      82  46  28 N8        30.02F
ALBUQUERQUE NM FAIR      77  26  15 S7        30.17F
SALT LAKE CITY FAIR      78  35  21 N8        30.18F
LOS ANGELES CA FAIR      67  57  70 W16       30.00F
BOISE ID       FAIR      82  35  18 CALM      30.13F
SEATTLE WA     FAIR      83  49  30 N10       30.06F
$$

*** WEATHER ACROSS MANITOBA...SASKATCHEWAN AND ONTARIO ***
                ***ONTARIO***

CITY           SKY/WX    TMP DP  RH WIND       PRES   REMARKS
GERALDTON      CLOUDY    68  39  34 VRB2      29.60F
THUNDER BAY    PTSUNNY   55  46  71 NE9       29.61S
SIOUX LOOKOUT  LGT RAIN  59  48  67 NW8       29.61R
TORONTO        MOSUNNY   68  55  64 E12G17    29.73F
BIG TROUT LK   PTSUNNY   66  48  52 N9        29.60R
PICKLE LAKE    PTSUNNY   66  45  45 S13       29.59
DRYDEN         LGT RAIN  54  50  87 N6        29.60F
KENORA         PTSUNNY   59  46  63 NW7       29.63R
$$
                *** MANITOBA***

CITY           SKY/WX    TMP DP  RH WIND       PRES   REMARKS
BRANDON        CLOUDY    55  45  67 N26G33    29.83R
DAUPHIN        CLOUDY    55  48  76 N21G26    29.83S
ISLAND LAKE    CLOUDY    50  48  93 NW12      29.68R
PILOT MOUND      N/A     52  45  76 NW25G36     N/A
THE PAS        DRIZZLE   46  43  87 N14       29.89R
THOMPSON       LGT RAIN  41  39  93 N8        29.81R FOG
WINNIPEG       CLOUDY    54  50  87 N21G31    29.73
LYNN LAKE      CLOUDY    52  43  71 N17G23    29.92S
CHURCHILL      CLOUDY    36  34  93 NE15      29.85R
GILLAM         CLOUDY    39  37  93 N8        29.74S
$$
                ***SASKATCHEWAN***

CITY           SKY/WX    TMP DP  RH WIND       PRES   REMARKS
ESTEVAN        PTSUNNY   59  39  47 N35G40    29.95S
KINDERSLEY     MOSUNNY   64  30  27 N22G31    30.17S
LLOYDMINSTER   MOSUNNY   63  28  27 N16G28    30.20F
PRINCE ALBERT  PTSUNNY   61  41  48 N16G30    30.07S
REGINA         PTSUNNY   63  36  36 NW35G46   30.01S
YORKTON          N/A     57  46  67 N24G30    29.91S
N. BATTLEFORD  PTSUNNY   63  36  36 N20G31    30.17F
LA RONGE       PTSUNNY   57  43  58 N16G31    30.08R
SASKATOON      PTSUNNY   64  39  39 N20G32    30.11S
SWIFT CURRENT  SUNNY     68  25  19 N30G36    30.10F
$$
NOTE: THESE ARE AUTOMATED STATIONS WITH LIMITED QUALITY CONTROL
      "FAIR" INDICATES FEW OR NO CLOUDS BELOW 12,000 FEET WITH NO
      SIGNIFICANT WEATHER AND/OR OBSTRUCTIONS TO VISIBILITY.
      SKY/WX - SKY CONDITION AND SIGNIFICANT WEATHER.
      TMP - AIR TEMPERATURE.    DP   - DEWPOINT TEMPERATURE.
      RH  - RELATIVE HUMIDITY.  PRES - PRESSURE.
      HX  - HEAT INDEX.         WCI  - WIND CHILL INDEX.
$



USA.gov is the U.S. government's official web portal to all federal, state and local government web resources and services.